Tracking 29892 objects as of 21-Nov-2024
HD Live streaming from Space Station
objects crossing your sky now

STARLINK-31557

Track STARLINK-31557 now!
10-day predictions
STARLINK-31557 is classified as:


NORAD ID: 59357
Int'l Code: 2024-060K
Perigee: 450.3 km
Apogee: 452.1 km
Inclination: 43.0 °
Period: 93.5 minutes
Semi major axis: 6822 km
RCS: Unknown
Launch date: March 31, 2024
Source: United States (US)
Launch site: AIR FORCE EASTERN TEST RANGE (AFETR)
Your satellite tracking list
Your tracking list is empty




NASA's NSSDC Master Catalog

Two Line Element Set (TLE):
1 59357U 24060K   24324.49089520 -.00000770  00000-0 -11168-4 0  9990
2 59357  43.0025  75.0760 0001354 284.7011  75.3695 15.40701922 37248
Source of the keplerian elements: AFSPC